| time (UTC) | temp F | wind direction | speed MPH | gust MPH | rain 1hr in | rain 24hr in | rain mn in | humidity % | barometer mb |
| 20260506111459 | 44 | 45 | 2.0 | 6.0 | 0.04 | 0.95 | 0.67 | 96 | 1009.6 |
| 20260506110002 | 44 | 88 | 2.0 | 9.0 | 0.05 | 0.94 | 0.66 | 96 | 1009.4 |
| 20260506104459 | 44 | 13 | 2.0 | 5.0 | 0.06 | 0.94 | 0.66 | 96 | 1009.1 |
| 20260506102959 | 44 | 73 | 2.0 | 6.0 | 0.06 | 0.92 | 0.64 | 96 | 1009.4 |
| 20260506101458 | 44 | 73 | 1.0 | 3.0 | 0.07 | 0.91 | 0.63 | 96 | 1009.7 |
| 20260506100001 | 44 | 55 | 2.0 | 5.0 | 0.05 | 0.89 | 0.61 | 96 | 1009.6 |
| 20260506094459 | 44 | 102 | 2.0 | 7.0 | 0.05 | 0.88 | 0.60 | 96 | 1009.6 |
| 20260506092959 | 44 | 319 | 1.0 | 5.0 | 0.04 | 0.86 | 0.58 | 96 | 1009.8 |
| 20260506091459 | 45 | 40 | 1.0 | 7.0 | 0.04 | 0.84 | 0.56 | 96 | 1009.4 |
| 20260506090001 | 45 | 74 | 1.0 | 3.0 | 0.05 | 0.84 | 0.56 | 96 | 1009.4 |
| 20260506084458 | 45 | 313 | 2.0 | 5.0 | 0.06 | 0.83 | 0.55 | 96 | 1009.5 |
| 20260506082959 | 45 | 27 | 1.0 | 4.0 | 0.08 | 0.82 | 0.54 | 96 | 1009.6 |
| 20260506081458 | 45 | 92 | 2.0 | 8.0 | 0.09 | 0.80 | 0.52 | 96 | 1009.8 |
| 20260506072959 | 46 | 50 | 2.0 | 4.0 | 0.11 | 0.75 | 0.46 | 96 | 1009.6 |
| 20260506071459 | 46 | 17 | 2.0 | 5.0 | 0.10 | 0.72 | 0.43 | 96 | 1009.5 |
| 20260506061458 | 47 | 33 | 2.0 | 5.0 | 0.17 | 0.63 | 0.33 | 96 | 1010.0 |
| 20260506044458 | 48 | 103 | 0.0 | 2.0 | 0.10 | 0.39 | 0.09 | 96 | 1010.3 |
| 20260506042958 | 49 | 103 | 0.0 | 3.0 | 0.08 | 0.35 | 0.05 | 96 | 1010.1 |
| 20260506041459 | 48 | 103 | 1.0 | 3.0 | 0.07 | 0.32 | 0.02 | 96 | 1010.1 |
| 20260506040007 | 48 | 103 | 0.0 | 2.0 | 0.06 | 0.30 | 0.00 | 96 | 1010.3 |
| 20260506034501 | 48 | 103 | 1.0 | 3.0 | 0.05 | 0.29 | 0.29 | 96 | 1010.5 |
| 20260506033004 | 48 | 103 | 1.0 | 3.0 | 0.03 | 0.27 | 0.27 | 96 | 1010.7 |
| 20260506031501 | 48 | 103 | 1.0 | 3.0 | 0.01 | 0.25 | 0.25 | 96 | 1010.8 |
| 20260506030005 | 48 | 103 | 1.0 | 3.0 | 0.00 | 0.24 | 0.24 | 96 | 1010.9 |
| 20260506024502 | 48 | 90 | 0.0 | 0.0 | 0.01 | 0.24 | 0.24 | 96 | 1010.9 |
| 20260506021502 | 48 | 137 | 0.0 | 2.0 | 0.04 | 0.24 | 0.24 | 95 | 1011.0 |
| 20260506020005 | 48 | 137 | 0.0 | 2.0 | 0.05 | 0.24 | 0.24 | 95 | 1010.9 |
| 20260506014501 | 48 | 137 | 0.0 | 0.0 | 0.04 | 0.23 | 0.23 | 95 | 1011.0 |
| 20260506011501 | 48 | 137 | 0.0 | 1.0 | 0.04 | 0.20 | 0.20 | 95 | 1011.0 |
| 20260506004501 | 48 | 137 | 0.0 | 0.0 | 0.04 | 0.19 | 0.19 | 94 | 1010.2 |
| 20260506003001 | 48 | 137 | 1.0 | 2.0 | 0.04 | 0.18 | 0.18 | 94 | 1010.2 |
| 20260506001501 | 48 | 137 | 0.0 | 1.0 | 0.03 | 0.16 | 0.16 | 93 | 1010.1 |
| 20260505231501 | 48 | 306 | 1.0 | 3.0 | 0.04 | 0.13 | 0.13 | 91 | 1010.0 |
| 20260505230004 | 49 | 289 | 1.0 | 3.0 | 0.04 | 0.12 | 0.12 | 90 | 1009.8 |
| 20260505224500 | 49 | 290 | 2.0 | 4.0 | 0.06 | 0.11 | 0.11 | 89 | 1009.5 |
| 20260505220006 | 52 | 343 | 4.0 | 9.0 | 0.06 | 0.08 | 0.08 | 83 | 1009.4 |
| 20260505214500 | 55 | 275 | 6.0 | 16.0 | 0.03 | 0.05 | 0.05 | 84 | 1009.1 |
| 20260505213000 | 60 | 304 | 6.0 | 17.0 | 0.00 | 0.02 | 0.02 | 77 | 1008.3 |
| 20260505204500 | 63 | 232 | 7.0 | 13.0 | 0.00 | 0.02 | 0.02 | 72 | 1006.9 |
| 20260505203001 | 64 | 213 | 7.0 | 14.0 | 0.00 | 0.02 | 0.02 | 71 | 1006.7 |
| 20260505201500 | 65 | 290 | 7.0 | 16.0 | 0.00 | 0.02 | 0.02 | 68 | 1006.4 |
| 20260505200004 | 65 | 273 | 9.0 | 17.0 | 0.00 | 0.02 | 0.02 | 68 | 1006.5 |
| 20260505194500 | 66 | 227 | 8.0 | 21.0 | 0.00 | 0.02 | 0.02 | 67 | 1006.7 |
| 20260505193000 | 66 | 169 | 9.0 | 19.0 | 0.00 | 0.02 | 0.02 | 66 | 1006.6 |
| 20260505191500 | 68 | 186 | 9.0 | 19.0 | 0.00 | 0.02 | 0.02 | 65 | 1006.2 |
| 20260505183000 | 67 | 226 | 10.0 | 26.0 | 0.00 | 0.02 | 0.02 | 65 | 1006.4 |
| 20260505181500 | 67 | 273 | 10.0 | 24.0 | 0.00 | 0.02 | 0.02 | 66 | 1006.0 |
| 20260505180005 | 67 | 225 | 9.0 | 20.0 | 0.00 | 0.02 | 0.02 | 65 | 1005.9 |
| 20260505173000 | 67 | 236 | 9.0 | 27.0 | 0.00 | 0.02 | 0.02 | 65 | 1005.9 |
| 20260505171500 | 68 | 229 | 8.0 | 22.0 | 0.00 | 0.02 | 0.02 | 66 | 1005.6 |
| 20260505170006 | 67 | 270 | 9.0 | 19.0 | 0.00 | 0.02 | 0.02 | 66 | 1005.5 |
| 20260505164500 | 65 | 218 | 7.0 | 16.0 | 0.00 | 0.02 | 0.02 | 69 | 1005.5 |
| 20260505163000 | 64 | 205 | 6.0 | 13.0 | 0.00 | 0.02 | 0.02 | 69 | 1005.8 |
| 20260505161500 | 65 | 223 | 7.0 | 15.0 | 0.00 | 0.02 | 0.02 | 69 | 1005.8 |
| 20260505151459 | 66 | 265 | 5.0 | 13.0 | 0.00 | 0.02 | 0.02 | 67 | 1004.3 |
| 20260505124501 | 67 | 171 | 6.0 | 14.0 | 0.00 | 0.02 | 0.02 | 67 | 1003.6 |
| 20260505122959 | 65 | 163 | 5.0 | 11.0 | 0.00 | 0.02 | 0.02 | 72 | 1003.6 |
| 20260505121500 | 65 | 190 | 5.0 | 12.0 | 0.00 | 0.02 | 0.02 | 72 | 1003.4 |
| 20260505114500 | 64 | 167 | 5.0 | 12.0 | 0.00 | 0.02 | 0.02 | 73 | 1003.3 |
| 20260505112959 | 63 | 164 | 5.0 | 12.0 | 0.00 | 0.02 | 0.02 | 74 | 1003.3 |